IRIDIUM 33 DEB, 33776

Orbit data source: Space-Track

IRIDIUM 33 DEB, 33776 is space debris in LEO originally from a launch on Sun, 14 Sep 1997 UTC launched from the Tyuratam Missile And Space Complex (TTMTR). The debris from Iridium 33, an American commercial communications satellite, has been tracked extensively since its accidental collision with the defunct Russian satellite Cosmos 2251 in 2009. This event, occurring at high speed in low Earth orbit (LEO), generated thousands of pieces of space debris, significantly increasing the risk of further collisions. The Iridium 33 debris cloud has impacted space traffic management and orbital debris mitigation strategies, making it a subject of ongoing study in space situational awareness.

Loading next visibility...
Identifier
33776, 1997-051P
Orbit
LEO
Country
Flag of USUS
Related business
Manufacturer
Unknown
Mission
Spacecraft
Bus & Motor
Unknown
Mass
Unknown
Launch date (UTC)
1997-09-14 (28 years ago)
Launch vehicle
Unknown
Launch site
Tyuratam Missile And Space Complex (TTMTR)
Object type
Payload
Rocket body
Debris
Shape & HBR
Unknown shape, 0.6 m
Radar Cross Section
Medium (>0.1 m² and <1 m²)

Expand to show TLE details & history
Last TLE update: 12 hours ago

TLE from 12 hours ago
0 IRIDIUM 33 DEB
1 33776U 97051P   26037.61304406  .00001061  00000-0  34161-3 0  9996
2 33776  86.3993  57.2940 0015208  23.1746  98.4700 14.38348710888856
Epoch: 2026-02-06T14:42Z
TLE epoch observation values (Epoch: 2026-02-06T14:42:47.006Z)
Latitude
58.09789°
Longitude
-125.92109°
Altitude
775.46 km
Speed
7.471 km/s
True Right ascension
15h 26m 05s
True Declination
57° 56' 38"
Sunlit
Object was in daylight at epoch
Visualization orbit readout
Latitude
Unknown
Longitude
Unknown
Altitude
Unknown
Speed
Unknown
Apparent Right ascension
Unknown
Apparent Declination
Unknown
Sunlit
N/A
Visualization observer readout
Local Sidereal Time
04:55:48
Azimuth
Unknown
Elevation
Unknown
Doppler factor
Unknown
Orbital elements
Apogee altitude
771.775 km
Perigee altitude
750.061 km
Semi-major axis
7,139.055 km
Eccentricity
0.00152
Inclination
86.3993°
RAAN
57.294°
Arg. of periapsis
23.1746°
True anomaly
98.64232°
Mean anomaly
98.47°
Eccentric anomaly
98.55617°
Mean motion
3.59817 °/min
Orbital period
100.05 mins
BSTAR
0.00034161
Loading maneuver chart data...
Computing Atmospheric mass density...

Documentation

Showing up to 5 results
|